Time,TemperatureF,DewpointF,PressureIn,WindDirection,WindDirectionDegrees,WindSpeedMPH,WindSpeedGustMPH,Humidity,HourlyPrecipIn,Conditions,Clouds,dailyrainin,SolarRadiationWatts/m^2,SoftwareType,DateUTC
2013-11-29 00:01:00,18.9,16.2,30.43,WSW,240,0.0,0.0,89,0.00,,,0.00,0.0,meteobridge,2013-11-29 05:01:00,
2013-11-29 00:02:00,18.9,16.2,30.43,WSW,240,0.0,0.0,89,0.00,,,0.00,0.0,meteobridge,2013-11-29 05:02:00,
2013-11-29 00:04:00,18.9,16.2,30.43,WSW,240,0.0,0.0,89,0.00,,,0.00,0.0,meteobridge,2013-11-29 05:04:00,
2013-11-29 00:05:00,18.9,16.2,30.43,WSW,240,0.0,0.0,89,0.00,,,0.00,0.0,meteobridge,2013-11-29 05:05:00,
2013-11-29 00:09:00,18.7,16.0,30.43,WSW,240,0.0,0.0,89,0.00,,,0.00,0.0,meteobridge,2013-11-29 05:09:00,
2013-11-29 00:15:00,18.3,15.6,30.43,WSW,240,0.0,0.0,89,0.00,,,0.00,0.0,meteobridge,2013-11-29 05:15:00,
2013-11-29 00:20:00,18.3,15.8,30.43,WSW,240,0.0,0.0,90,0.00,,,0.00,0.0,meteobridge,2013-11-29 05:20:00,
2013-11-29 00:26:00,18.1,15.6,30.43,WSW,240,0.0,0.0,90,0.00,,,0.00,0.0,meteobridge,2013-11-29 05:26:00,
2013-11-29 00:31:00,18.1,15.6,30.43,WSW,240,0.0,0.0,90,0.00,,,0.00,0.0,meteobridge,2013-11-29 05:31:00,
2013-11-29 00:36:00,18.0,15.4,30.43,WSW,240,0.0,0.0,90,0.00,,,0.00,0.0,meteobridge,2013-11-29 05:36:00,
2013-11-29 00:41:00,18.0,15.4,30.43,WSW,241,0.0,0.0,90,0.00,,,0.00,0.0,meteobridge,2013-11-29 05:41:00,
2013-11-29 00:46:00,17.8,15.3,30.43,WSW,240,0.0,0.0,90,0.00,,,0.00,0.0,meteobridge,2013-11-29 05:46:00,
2013-11-29 00:51:00,17.6,15.3,30.43,WSW,240,0.0,0.0,90,0.00,,,0.00,0.0,meteobridge,2013-11-29 05:51:00,
2013-11-29 00:57:00,17.4,15.1,30.44,WSW,240,0.0,0.0,90,0.00,,,0.00,0.0,meteobridge,2013-11-29 05:57:00,
2013-11-29 01:02:00,17.2,14.9,30.44,WSW,240,0.0,0.0,90,0.00,,,0.00,0.0,meteobridge,2013-11-29 06:02:00,
2013-11-29 01:07:00,17.1,14.7,30.44,WSW,240,0.0,0.0,90,0.00,,,0.00,0.0,meteobridge,2013-11-29 06:07:00,
2013-11-29 01:13:00,17.1,14.9,30.44,WSW,240,0.0,0.0,91,0.00,,,0.00,0.0,meteobridge,2013-11-29 06:13:00,
2013-11-29 01:18:00,16.9,14.7,30.44,WSW,240,0.0,0.0,91,0.00,,,0.00,0.0,meteobridge,2013-11-29 06:18:00,
2013-11-29 01:23:00,16.9,14.7,30.45,WSW,240,0.0,0.0,91,0.00,,,0.00,0.0,meteobridge,2013-11-29 06:23:00,
2013-11-29 01:28:00,16.7,14.5,30.45,WSW,240,0.0,0.0,91,0.00,,,0.00,0.0,meteobridge,2013-11-29 06:28:00,
2013-11-29 01:33:00,16.5,14.4,30.45,WSW,240,0.0,0.0,91,0.00,,,0.00,0.0,meteobridge,2013-11-29 06:33:00,
2013-11-29 01:38:00,16.3,14.2,30.45,WSW,240,0.0,0.0,91,0.00,,,0.00,0.0,meteobridge,2013-11-29 06:38:00,
2013-11-29 01:44:00,16.3,14.2,30.45,WSW,240,0.0,0.0,91,0.00,,,0.00,0.0,meteobridge,2013-11-29 06:44:00,
2013-11-29 01:49:00,16.2,14.0,30.45,WSW,240,0.0,0.0,91,0.00,,,0.00,0.0,meteobridge,2013-11-29 06:49:00,
2013-11-29 01:54:00,16.0,13.8,30.45,WSW,240,0.0,0.0,91,0.00,,,0.00,0.0,meteobridge,2013-11-29 06:54:00,
2013-11-29 01:59:00,16.0,13.8,30.45,WSW,240,0.0,0.0,91,0.00,,,0.00,0.0,meteobridge,2013-11-29 06:59:00,
2013-11-29 02:04:00,15.8,13.8,30.46,WSW,240,0.0,0.0,92,0.00,,,0.00,0.0,meteobridge,2013-11-29 07:04:00,
2013-11-29 02:10:00,15.8,13.8,30.46,WSW,240,0.0,0.0,92,0.00,,,0.00,0.0,meteobridge,2013-11-29 07:10:00,
2013-11-29 02:15:00,15.6,13.6,30.46,WSW,240,0.0,0.0,92,0.00,,,0.00,0.0,meteobridge,2013-11-29 07:15:00,
2013-11-29 02:20:00,15.6,13.6,30.46,WSW,240,0.0,0.0,92,0.00,,,0.00,0.0,meteobridge,2013-11-29 07:20:00,
2013-11-29 02:25:00,15.4,13.5,30.46,WSW,240,0.0,0.0,92,0.00,,,0.00,0.0,meteobridge,2013-11-29 07:25:00,
2013-11-29 02:30:00,15.4,13.3,30.47,WSW,240,0.0,0.0,91,0.00,,,0.00,0.0,meteobridge,2013-11-29 07:30:00,
2013-11-29 02:36:00,15.4,13.3,30.47,WSW,240,0.0,0.0,91,0.00,,,0.00,0.0,meteobridge,2013-11-29 07:36:00,
2013-11-29 02:41:00,15.3,13.3,30.48,WSW,240,0.0,0.0,92,0.00,,,0.00,0.0,meteobridge,2013-11-29 07:41:00,
2013-11-29 02:46:00,15.3,13.3,30.48,WSW,240,0.0,0.0,92,0.00,,,0.00,0.0,meteobridge,2013-11-29 07:46:00,
2013-11-29 02:52:00,15.3,13.1,30.48,WSW,240,0.0,0.0,91,0.00,,,0.00,0.0,meteobridge,2013-11-29 07:52:00,
2013-11-29 02:57:00,15.1,12.9,30.49,WSW,240,0.0,0.0,91,0.00,,,0.00,0.0,meteobridge,2013-11-29 07:57:00,
2013-11-29 03:02:00,14.9,12.7,30.49,WSW,240,0.0,0.0,91,0.00,,,0.00,0.0,meteobridge,2013-11-29 08:02:00,
2013-11-29 03:07:00,14.7,12.6,30.49,WSW,240,0.0,0.0,91,0.00,,,0.00,0.0,meteobridge,2013-11-29 08:07:00,
2013-11-29 03:12:00,14.7,12.6,30.49,WSW,240,0.0,0.0,91,0.00,,,0.00,0.0,meteobridge,2013-11-29 08:12:00,
2013-11-29 03:18:00,14.5,12.4,30.49,WSW,240,0.0,0.0,91,0.00,,,0.00,0.0,meteobridge,2013-11-29 08:18:00,
2013-11-29 03:23:00,14.5,12.4,30.49,WSW,240,0.0,0.0,91,0.00,,,0.00,0.0,meteobridge,2013-11-29 08:23:00,
2013-11-29 03:28:00,14.4,12.4,30.49,WSW,240,0.0,0.0,92,0.00,,,0.00,0.0,meteobridge,2013-11-29 08:28:00,
2013-11-29 03:33:00,14.4,12.2,30.50,WSW,240,0.0,0.0,91,0.00,,,0.00,0.0,meteobridge,2013-11-29 08:33:00,
2013-11-29 03:38:00,14.4,12.2,30.50,WSW,240,0.0,0.0,91,0.00,,,0.00,0.0,meteobridge,2013-11-29 08:38:00,
2013-11-29 03:43:00,14.4,12.4,30.50,WSW,240,0.0,0.0,92,0.00,,,0.00,0.0,meteobridge,2013-11-29 08:43:00,
2013-11-29 03:49:00,14.4,12.4,30.50,WSW,240,0.0,0.0,92,0.00,,,0.00,0.0,meteobridge,2013-11-29 08:49:00,
2013-11-29 03:54:00,14.4,12.4,30.50,WSW,240,0.0,0.0,92,0.00,,,0.00,0.0,meteobridge,2013-11-29 08:54:00,
2013-11-29 03:59:00,14.4,12.4,30.51,WSW,240,0.0,0.0,92,0.00,,,0.00,0.0,meteobridge,2013-11-29 08:59:00,
2013-11-29 04:04:00,14.4,12.4,30.51,WSW,240,0.0,0.0,92,0.00,,,0.00,0.0,meteobridge,2013-11-29 09:04:00,
2013-11-29 04:09:00,14.5,12.9,30.51,WSW,240,0.0,0.0,93,0.00,,,0.00,0.0,meteobridge,2013-11-29 09:09:00,
2013-11-29 04:14:00,14.5,12.9,30.51,WSW,240,0.0,0.0,93,0.00,,,0.00,0.0,meteobridge,2013-11-29 09:14:00,
2013-11-29 04:20:00,14.7,13.1,30.51,WSW,241,0.0,0.0,93,0.00,,,0.00,0.0,meteobridge,2013-11-29 09:20:00,
2013-11-29 04:25:00,14.9,13.3,30.51,WSW,240,0.0,0.0,93,0.00,,,0.00,0.0,meteobridge,2013-11-29 09:25:00,
2013-11-29 04:30:00,15.1,13.5,30.51,WSW,240,0.0,0.0,93,0.00,,,0.00,0.0,meteobridge,2013-11-29 09:30:00,
2013-11-29 04:35:00,15.1,13.5,30.52,WSW,240,0.0,0.0,93,0.00,,,0.00,0.0,meteobridge,2013-11-29 09:35:00,
2013-11-29 04:41:00,15.3,13.6,30.52,WSW,240,0.0,0.0,93,0.00,,,0.00,0.0,meteobridge,2013-11-29 09:41:00,
2013-11-29 04:46:00,15.3,13.6,30.52,WSW,240,0.0,0.0,93,0.00,,,0.00,0.0,meteobridge,2013-11-29 09:46:00,
2013-11-29 04:51:00,15.3,13.6,30.52,WSW,240,0.0,0.0,93,0.00,,,0.00,0.0,meteobridge,2013-11-29 09:51:00,
2013-11-29 04:56:00,15.3,13.3,30.52,WSW,240,0.0,0.0,92,0.00,,,0.00,0.0,meteobridge,2013-11-29 09:56:00,
2013-11-29 05:01:00,15.3,13.6,30.53,WSW,240,0.0,0.0,93,0.00,,,0.00,0.0,meteobridge,2013-11-29 10:01:00,
2013-11-29 05:06:00,15.4,13.8,30.53,WSW,240,0.0,0.0,93,0.00,,,0.00,0.0,meteobridge,2013-11-29 10:06:00,
2013-11-29 05:12:00,15.4,13.8,30.53,WSW,240,0.0,0.0,93,0.00,,,0.00,0.0,meteobridge,2013-11-29 10:12:00,
2013-11-29 05:17:00,15.4,13.8,30.53,WSW,240,0.0,0.0,93,0.00,,,0.00,0.0,meteobridge,2013-11-29 10:17:00,
2013-11-29 05:21:00,15.6,14.0,30.53,WSW,240,0.0,0.0,93,0.00,,,0.00,0.0,meteobridge,2013-11-29 10:21:00,
2013-11-29 05:27:00,15.6,14.0,30.53,WSW,240,0.0,0.0,93,0.00,,,0.00,0.0,meteobridge,2013-11-29 10:27:00,
2013-11-29 05:32:00,15.6,14.0,30.54,WSW,240,0.0,0.0,93,0.00,,,0.00,0.0,meteobridge,2013-11-29 10:32:00,
2013-11-29 05:37:00,15.8,14.2,30.54,WSW,240,0.0,0.0,93,0.00,,,0.00,0.0,meteobridge,2013-11-29 10:37:00,
2013-11-29 05:43:00,15.8,14.2,30.54,WSW,240,0.0,0.0,93,0.00,,,0.00,0.0,meteobridge,2013-11-29 10:43:00,
2013-11-29 05:48:00,16.0,14.4,30.54,WSW,240,0.0,0.0,93,0.00,,,0.00,0.0,meteobridge,2013-11-29 10:48:00,
2013-11-29 05:53:00,16.2,14.5,30.55,WSW,240,0.0,0.0,93,0.00,,,0.00,0.0,meteobridge,2013-11-29 10:53:00,
2013-11-29 05:59:00,16.2,14.5,30.55,WSW,240,0.0,0.0,93,0.00,,,0.00,0.0,meteobridge,2013-11-29 10:59:00,
2013-11-29 06:04:00,16.3,14.9,30.55,WSW,240,0.0,0.0,94,0.00,,,0.00,0.0,meteobridge,2013-11-29 11:04:00,
2013-11-29 06:09:00,16.5,15.1,30.56,WSW,240,0.0,0.0,94,0.00,,,0.00,0.0,meteobridge,2013-11-29 11:09:00,
2013-11-29 06:14:00,16.9,15.4,30.56,WSW,240,0.0,0.0,94,0.00,,,0.00,0.0,meteobridge,2013-11-29 11:14:00,
2013-11-29 06:20:00,17.1,15.6,30.56,WSW,240,0.0,0.0,94,0.00,,,0.00,0.0,meteobridge,2013-11-29 11:20:00,
2013-11-29 06:25:00,17.1,15.4,30.56,WSW,240,0.0,0.0,93,0.00,,,0.00,0.0,meteobridge,2013-11-29 11:25:00,
2013-11-29 06:30:00,17.1,15.4,30.56,WSW,240,0.0,0.0,93,0.00,,,0.00,0.0,meteobridge,2013-11-29 11:30:00,
2013-11-29 06:35:00,17.2,15.6,30.56,WSW,240,0.0,0.0,93,0.00,,,0.00,0.0,meteobridge,2013-11-29 11:35:00,
2013-11-29 06:40:00,17.2,15.6,30.57,WSW,240,0.0,0.0,93,0.00,,,0.00,0.0,meteobridge,2013-11-29 11:40:00,
2013-11-29 06:46:00,17.2,15.6,30.57,WSW,240,0.0,0.0,93,0.00,,,0.00,0.0,meteobridge,2013-11-29 11:46:00,
2013-11-29 06:51:00,17.1,15.1,30.57,WSW,240,0.0,0.0,92,0.00,,,0.00,0.0,meteobridge,2013-11-29 11:51:00,
2013-11-29 06:56:00,17.1,15.1,30.57,WSW,240,0.0,0.0,92,0.00,,,0.00,0.0,meteobridge,2013-11-29 11:56:00,
2013-11-29 07:01:00,16.9,14.9,30.58,WSW,240,0.0,0.0,92,0.00,,,0.00,0.0,meteobridge,2013-11-29 12:01:00,
2013-11-29 07:06:00,16.9,14.9,30.58,WSW,240,0.0,0.0,92,0.00,,,0.00,0.0,meteobridge,2013-11-29 12:06:00,
2013-11-29 07:11:00,16.7,14.7,30.58,WSW,240,0.0,0.0,92,0.00,,,0.00,0.0,meteobridge,2013-11-29 12:11:00,
2013-11-29 07:17:00,16.5,14.5,30.59,WSW,240,0.0,0.0,92,0.00,,,0.00,0.0,meteobridge,2013-11-29 12:17:00,
2013-11-29 07:22:00,16.3,14.4,30.59,WSW,240,0.0,0.0,92,0.00,,,0.00,0.0,meteobridge,2013-11-29 12:22:00,
2013-11-29 07:27:00,16.3,14.4,30.59,WSW,240,0.0,0.0,92,0.00,,,0.00,0.0,meteobridge,2013-11-29 12:27:00,
2013-11-29 07:32:00,16.2,14.2,30.59,WSW,240,0.0,0.0,92,0.00,,,0.00,0.0,meteobridge,2013-11-29 12:32:00,
2013-11-29 07:37:00,16.0,13.8,30.60,WSW,240,0.0,0.0,91,0.00,,,0.00,0.0,meteobridge,2013-11-29 12:37:00,
2013-11-29 07:43:00,16.0,13.8,30.60,WSW,240,0.0,0.0,91,0.00,,,0.00,5.0,meteobridge,2013-11-29 12:43:00,
2013-11-29 07:48:00,16.0,13.8,30.60,WSW,240,0.0,0.0,91,0.00,,,0.00,5.0,meteobridge,2013-11-29 12:48:00,
2013-11-29 07:53:00,15.6,13.6,30.60,WSW,240,0.0,0.0,92,0.00,,,0.00,9.0,meteobridge,2013-11-29 12:53:00,
2013-11-29 07:58:00,15.6,13.6,30.61,WSW,240,0.0,0.0,92,0.00,,,0.00,11.0,meteobridge,2013-11-29 12:58:00,
2013-11-29 08:04:00,15.6,13.6,30.61,WSW,240,0.0,0.0,92,0.00,,,0.00,14.0,meteobridge,2013-11-29 13:04:00,
2013-11-29 08:09:00,15.6,13.6,30.61,WSW,240,0.0,0.0,92,0.00,,,0.00,18.0,meteobridge,2013-11-29 13:09:00,
2013-11-29 08:14:00,15.6,13.6,30.61,WSW,240,0.0,0.0,92,0.00,,,0.00,21.0,meteobridge,2013-11-29 13:14:00,
2013-11-29 08:19:00,15.6,13.6,30.62,WSW,240,0.0,0.0,92,0.00,,,0.00,25.0,meteobridge,2013-11-29 13:19:00,
2013-11-29 08:24:00,15.6,14.0,30.62,WSW,240,0.0,0.0,93,0.00,,,0.00,28.0,meteobridge,2013-11-29 13:24:00,
2013-11-29 08:29:00,16.0,14.4,30.62,WSW,240,0.0,0.0,93,0.00,,,0.00,46.0,meteobridge,2013-11-29 13:29:00,
2013-11-29 08:34:00,16.3,14.9,30.62,WSW,240,0.0,0.0,94,0.00,,,0.00,40.0,meteobridge,2013-11-29 13:34:00,
2013-11-29 08:40:00,16.9,15.4,30.63,WSW,240,0.0,0.0,94,0.00,,,0.00,44.0,meteobridge,2013-11-29 13:40:00,
2013-11-29 08:45:00,17.4,16.0,30.63,WSW,240,0.0,0.0,94,0.00,,,0.00,51.0,meteobridge,2013-11-29 13:45:00,
2013-11-29 08:50:00,18.1,16.7,30.63,WSW,240,0.0,0.0,94,0.00,,,0.00,56.0,meteobridge,2013-11-29 13:50:00,
2013-11-29 08:55:00,18.9,17.2,30.63,WSW,240,0.0,0.0,93,0.00,,,0.00,76.0,meteobridge,2013-11-29 13:55:00,
2013-11-29 09:00:00,19.4,17.8,30.64,WSW,240,0.0,0.0,93,0.00,,,0.00,100.0,meteobridge,2013-11-29 14:00:00,
2013-11-29 09:05:00,19.8,18.1,30.64,WSW,240,0.0,0.9,93,0.00,,,0.00,125.0,meteobridge,2013-11-29 14:05:00,
2013-11-29 09:10:00,20.7,19.0,30.64,WSW,241,0.0,0.9,93,0.00,,,0.00,125.0,meteobridge,2013-11-29 14:10:00,
2013-11-29 09:15:00,21.4,19.8,30.64,North,353,0.0,0.9,93,0.00,,,0.00,134.0,meteobridge,2013-11-29 14:15:00,
2013-11-29 09:20:00,21.7,20.1,30.64,North,359,0.9,2.9,93,0.00,,,0.00,98.0,meteobridge,2013-11-29 14:20:00,
2013-11-29 09:25:00,22.3,20.5,30.64,North,359,0.0,0.9,93,0.00,,,0.00,178.0,meteobridge,2013-11-29 14:25:00,
2013-11-29 09:30:00,22.6,20.7,30.64,NNW,339,0.9,4.0,92,0.00,,,0.00,195.0,meteobridge,2013-11-29 14:30:00,
2013-11-29 09:35:00,23.0,20.8,30.64,NNW,348,2.9,2.9,91,0.00,,,0.00,255.0,meteobridge,2013-11-29 14:35:00,
2013-11-29 09:40:00,23.4,21.2,30.65,NNW,341,0.0,2.0,91,0.00,,,0.00,269.0,meteobridge,2013-11-29 14:40:00,
2013-11-29 09:46:00,23.5,21.4,30.64,NE,44,2.0,2.9,91,0.00,,,0.00,287.0,meteobridge,2013-11-29 14:46:00,
2013-11-29 09:51:00,24.1,21.6,30.65,North,2,0.0,4.0,90,0.00,,,0.00,302.0,meteobridge,2013-11-29 14:51:00,
2013-11-29 09:56:00,24.3,21.7,30.65,NNE,32,2.0,2.9,90,0.00,,,0.00,316.0,meteobridge,2013-11-29 14:56:00,
2013-11-29 10:01:00,24.4,21.7,30.65,NNE,32,0.0,2.9,89,0.00,,,0.00,339.0,meteobridge,2013-11-29 15:01:00,
2013-11-29 10:06:00,24.4,21.4,30.65,NNW,347,0.0,2.0,88,0.00,,,0.00,357.0,meteobridge,2013-11-29 15:06:00,
2013-11-29 10:11:00,24.6,21.4,30.65,NNW,347,0.9,4.0,87,0.00,,,0.00,364.0,meteobridge,2013-11-29 15:11:00,
2013-11-29 10:16:00,24.8,21.6,30.66,North,3,0.0,2.0,87,0.00,,,0.00,385.0,meteobridge,2013-11-29 15:16:00,
2013-11-29 10:21:00,25.0,21.7,30.66,NNW,345,0.9,2.0,87,0.00,,,0.00,396.0,meteobridge,2013-11-29 15:21:00,
2013-11-29 10:26:00,25.2,21.9,30.66,NNW,345,0.0,0.9,87,0.00,,,0.00,404.0,meteobridge,2013-11-29 15:26:00,
2013-11-29 10:31:00,25.3,21.7,30.66,NNW,345,0.0,0.9,86,0.00,,,0.00,415.0,meteobridge,2013-11-29 15:31:00,
2013-11-29 10:36:00,25.5,22.3,30.66,North,7,0.9,2.0,87,0.00,,,0.00,418.0,meteobridge,2013-11-29 15:36:00,
2013-11-29 10:42:00,26.1,22.6,30.66,North,7,0.0,0.0,87,0.00,,,0.00,434.0,meteobridge,2013-11-29 15:42:00,
2013-11-29 10:47:00,26.2,22.6,30.66,North,7,0.0,0.9,86,0.00,,,0.00,445.0,meteobridge,2013-11-29 15:47:00,
2013-11-29 10:52:00,26.4,23.0,30.66,SSW,201,0.9,2.9,87,0.00,,,0.00,454.0,meteobridge,2013-11-29 15:52:00,
2013-11-29 10:57:00,27.0,23.4,30.66,SSW,200,0.0,0.9,86,0.00,,,0.00,455.0,meteobridge,2013-11-29 15:57:00,
2013-11-29 11:02:00,27.1,23.2,30.66,SSW,200,0.9,0.9,85,0.00,,,0.00,457.0,meteobridge,2013-11-29 16:02:00,
2013-11-29 11:07:00,27.1,23.0,30.66,SSW,206,0.9,2.9,84,0.00,,,0.00,466.0,meteobridge,2013-11-29 16:07:00,
2013-11-29 11:12:00,27.3,23.4,30.66,South,185,2.0,2.9,85,0.00,,,0.00,478.0,meteobridge,2013-11-29 16:12:00,
2013-11-29 11:17:00,27.7,23.5,30.66,SSW,203,0.9,2.9,84,0.00,,,0.00,482.0,meteobridge,2013-11-29 16:17:00,
2013-11-29 11:23:00,27.7,22.8,30.66,South,175,0.0,0.9,82,0.00,,,0.00,485.0,meteobridge,2013-11-29 16:23:00,
2013-11-29 11:28:00,27.7,22.8,30.65,SSE,156,2.0,2.0,82,0.00,,,0.00,490.0,meteobridge,2013-11-29 16:28:00,
2013-11-29 11:33:00,27.9,23.4,30.65,SW,232,0.0,2.0,83,0.00,,,0.00,492.0,meteobridge,2013-11-29 16:33:00,
2013-11-29 11:38:00,27.9,23.4,30.65,WNW,284,0.0,4.9,83,0.00,,,0.00,501.0,meteobridge,2013-11-29 16:38:00,
2013-11-29 11:43:00,28.0,23.2,30.65,WNW,284,2.0,2.0,82,0.00,,,0.00,496.0,meteobridge,2013-11-29 16:43:00,
2013-11-29 11:48:00,28.6,24.1,30.65,South,191,2.0,2.0,83,0.00,,,0.00,506.0,meteobridge,2013-11-29 16:48:00,
2013-11-29 11:53:00,28.8,23.9,30.65,South,191,2.0,2.9,82,0.00,,,0.00,519.0,meteobridge,2013-11-29 16:53:00,
2013-11-29 11:58:00,29.1,24.1,30.65,South,190,0.0,0.9,81,0.00,,,0.00,519.0,meteobridge,2013-11-29 16:58:00,
2013-11-29 12:03:00,29.3,24.3,30.65,West,280,0.0,2.9,81,0.00,,,0.00,520.0,meteobridge,2013-11-29 17:03:00,
2013-11-29 12:09:00,29.5,23.7,30.65,West,261,2.0,4.0,79,0.00,,,0.00,512.0,meteobridge,2013-11-29 17:09:00,
2013-11-29 12:14:00,29.5,23.7,30.65,West,261,0.9,2.0,79,0.00,,,0.00,520.0,meteobridge,2013-11-29 17:14:00,
2013-11-29 12:19:00,29.7,23.9,30.65,West,261,0.0,0.9,79,0.00,,,0.00,519.0,meteobridge,2013-11-29 17:19:00,
2013-11-29 12:24:00,29.7,23.7,30.64,West,261,0.9,2.0,78,0.00,,,0.00,515.0,meteobridge,2013-11-29 17:24:00,
2013-11-29 12:29:00,29.7,23.7,30.64,WNW,282,0.9,2.9,78,0.00,,,0.00,519.0,meteobridge,2013-11-29 17:29:00,
2013-11-29 12:34:00,29.7,23.0,30.64,West,281,0.9,0.9,76,0.00,,,0.00,524.0,meteobridge,2013-11-29 17:34:00,
2013-11-29 12:39:00,29.8,23.2,30.64,WNW,282,0.0,0.0,76,0.00,,,0.00,527.0,meteobridge,2013-11-29 17:39:00,
2013-11-29 12:44:00,29.8,23.2,30.64,WNW,294,0.9,2.0,76,0.00,,,0.00,527.0,meteobridge,2013-11-29 17:44:00,
2013-11-29 12:49:00,30.0,23.4,30.63,WNW,295,0.9,2.9,76,0.00,,,0.00,524.0,meteobridge,2013-11-29 17:49:00,
2013-11-29 12:54:00,30.4,24.1,30.63,NW,306,0.0,2.0,77,0.00,,,0.00,524.0,meteobridge,2013-11-29 17:54:00,
2013-11-29 12:59:00,30.4,23.4,30.63,NW,306,0.9,0.9,75,0.00,,,0.00,520.0,meteobridge,2013-11-29 17:59:00,
2013-11-29 13:05:00,30.6,23.5,30.63,East,93,0.9,2.0,75,0.00,,,0.00,522.0,meteobridge,2013-11-29 18:05:00,
2013-11-29 13:10:00,30.7,23.4,30.62,ESE,112,0.9,2.9,74,0.00,,,0.00,515.0,meteobridge,2013-11-29 18:10:00,
2013-11-29 13:15:00,30.9,23.5,30.63,SE,137,2.0,2.9,74,0.00,,,0.00,510.0,meteobridge,2013-11-29 18:15:00,
2013-11-29 13:20:00,31.3,23.7,30.63,South,175,0.0,2.9,73,0.00,,,0.00,510.0,meteobridge,2013-11-29 18:20:00,
2013-11-29 13:25:00,31.5,24.1,30.62,SW,235,0.0,4.0,74,0.00,,,0.00,496.0,meteobridge,2013-11-29 18:25:00,
2013-11-29 13:30:00,31.5,23.2,30.62,NW,306,0.0,2.0,71,0.00,,,0.00,487.0,meteobridge,2013-11-29 18:30:00,
2013-11-29 13:35:00,31.5,23.5,30.62,SSE,168,2.0,4.0,72,0.00,,,0.00,490.0,meteobridge,2013-11-29 18:35:00,
2013-11-29 13:40:00,31.6,23.4,30.62,South,180,0.9,2.9,71,0.00,,,0.00,490.0,meteobridge,2013-11-29 18:40:00,
2013-11-29 13:45:00,31.8,22.8,30.61,SSE,158,0.0,0.9,69,0.00,,,0.00,480.0,meteobridge,2013-11-29 18:45:00,
2013-11-29 13:50:00,31.8,22.5,30.61,SSE,158,2.0,2.9,68,0.00,,,0.00,471.0,meteobridge,2013-11-29 18:50:00,
2013-11-29 13:55:00,31.8,22.1,30.62,ESE,112,0.9,2.0,67,0.00,,,0.00,466.0,meteobridge,2013-11-29 18:55:00,
2013-11-29 14:01:00,31.8,21.0,30.61,SE,144,0.0,0.9,64,0.00,,,0.00,438.0,meteobridge,2013-11-29 19:01:00,
2013-11-29 14:06:00,31.8,21.0,30.61,SE,143,0.0,0.9,64,0.00,,,0.00,434.0,meteobridge,2013-11-29 19:06:00,
2013-11-29 14:11:00,32.0,20.8,30.61,North,4,0.9,4.0,63,0.00,,,0.00,417.0,meteobridge,2013-11-29 19:11:00,
2013-11-29 14:16:00,32.0,20.5,30.61,North,3,0.0,2.0,62,0.00,,,0.00,411.0,meteobridge,2013-11-29 19:16:00,
2013-11-29 14:21:00,32.2,21.0,30.61,North,7,0.0,0.9,63,0.00,,,0.00,399.0,meteobridge,2013-11-29 19:21:00,
2013-11-29 14:26:00,32.2,21.0,30.61,NNE,24,0.9,2.9,63,0.00,,,0.00,397.0,meteobridge,2013-11-29 19:26:00,
2013-11-29 14:31:00,32.2,21.4,30.61,East,98,2.0,2.9,64,0.00,,,0.00,390.0,meteobridge,2013-11-29 19:31:00,
2013-11-29 14:36:00,32.4,21.2,30.61,East,99,0.9,2.9,63,0.00,,,0.00,378.0,meteobridge,2013-11-29 19:36:00,
2013-11-29 14:41:00,32.4,21.2,30.61,ESE,109,2.0,2.0,63,0.00,,,0.00,359.0,meteobridge,2013-11-29 19:41:00,
2013-11-29 14:46:00,32.4,21.2,30.61,South,185,0.9,2.9,63,0.00,,,0.00,350.0,meteobridge,2013-11-29 19:46:00,
2013-11-29 14:51:00,32.4,20.8,30.61,NNE,18,0.9,2.0,62,0.00,,,0.00,332.0,meteobridge,2013-11-29 19:51:00,
2013-11-29 14:56:00,32.4,21.6,30.61,SE,134,0.9,2.9,64,0.00,,,0.00,330.0,meteobridge,2013-11-29 19:56:00,
2013-11-29 15:02:00,32.4,21.2,30.61,SSE,164,0.9,2.0,63,0.00,,,0.00,281.0,meteobridge,2013-11-29 20:02:00,
2013-11-29 15:07:00,32.2,21.4,30.62,SSE,150,0.9,0.9,64,0.00,,,0.00,250.0,meteobridge,2013-11-29 20:07:00,
2013-11-29 15:12:00,32.2,20.7,30.62,SSE,150,0.0,0.9,62,0.00,,,0.00,230.0,meteobridge,2013-11-29 20:12:00,
2013-11-29 15:17:00,32.2,21.0,30.62,SSE,150,0.9,0.9,63,0.00,,,0.00,185.0,meteobridge,2013-11-29 20:17:00,
2013-11-29 15:22:00,32.2,21.4,30.62,SSE,150,0.9,2.0,64,0.00,,,0.00,111.0,meteobridge,2013-11-29 20:22:00,
2013-11-29 15:27:00,32.2,21.4,30.62,SSW,195,0.0,0.9,64,0.00,,,0.00,114.0,meteobridge,2013-11-29 20:27:00,
2013-11-29 15:32:00,32.4,21.2,30.62,SSW,195,0.0,2.0,63,0.00,,,0.00,128.0,meteobridge,2013-11-29 20:32:00,
2013-11-29 15:38:00,32.4,20.8,30.62,SE,145,2.0,4.0,62,0.00,,,0.00,90.0,meteobridge,2013-11-29 20:38:00,
2013-11-29 15:42:00,32.4,20.8,30.62,ESE,103,2.0,4.9,62,0.00,,,0.00,91.0,meteobridge,2013-11-29 20:42:00,
2013-11-29 15:48:00,32.4,21.2,30.62,SE,137,0.9,4.9,63,0.00,,,0.00,102.0,meteobridge,2013-11-29 20:48:00,
2013-11-29 15:53:00,32.4,21.2,30.63,SSE,150,2.9,2.9,63,0.00,,,0.00,95.0,meteobridge,2013-11-29 20:53:00,
2013-11-29 15:58:00,32.4,21.6,30.63,SSE,153,0.9,2.9,64,0.00,,,0.00,58.0,meteobridge,2013-11-29 20:58:00,
2013-11-29 16:03:00,32.2,21.0,30.63,ESE,113,2.0,4.0,63,0.00,,,0.00,67.0,meteobridge,2013-11-29 21:03:00,
2013-11-29 16:08:00,32.2,20.3,30.63,East,101,2.0,2.9,61,0.00,,,0.00,76.0,meteobridge,2013-11-29 21:08:00,
2013-11-29 16:13:00,32.2,20.7,30.63,East,101,0.0,2.0,62,0.00,,,0.00,60.0,meteobridge,2013-11-29 21:13:00,
2013-11-29 16:18:00,32.0,20.5,30.63,East,101,0.0,2.0,62,0.00,,,0.00,62.0,meteobridge,2013-11-29 21:18:00,
2013-11-29 16:23:00,31.8,20.7,30.63,East,101,0.0,0.9,63,0.00,,,0.00,69.0,meteobridge,2013-11-29 21:23:00,
2013-11-29 16:28:00,31.8,20.3,30.63,East,101,2.0,2.0,62,0.00,,,0.00,54.0,meteobridge,2013-11-29 21:28:00,
2013-11-29 16:34:00,31.8,20.3,30.63,East,101,0.0,2.9,62,0.00,,,0.00,44.0,meteobridge,2013-11-29 21:34:00,
2013-11-29 16:39:00,31.6,20.1,30.62,East,101,0.0,2.0,62,0.00,,,0.00,28.0,meteobridge,2013-11-29 21:39:00,
2013-11-29 16:44:00,31.6,20.1,30.62,SE,139,0.9,0.9,62,0.00,,,0.00,19.0,meteobridge,2013-11-29 21:44:00,
2013-11-29 16:49:00,31.5,20.3,30.61,ESE,110,2.0,2.9,63,0.00,,,0.00,14.0,meteobridge,2013-11-29 21:49:00,
2013-11-29 16:54:00,31.3,19.8,30.62,East,99,2.0,2.9,62,0.00,,,0.00,11.0,meteobridge,2013-11-29 21:54:00,
2013-11-29 16:59:00,31.3,20.1,30.63,East,99,0.0,0.0,63,0.00,,,0.00,7.0,meteobridge,2013-11-29 21:59:00,
2013-11-29 17:04:00,30.9,19.8,30.63,East,99,0.0,2.0,63,0.00,,,0.00,0.0,meteobridge,2013-11-29 22:04:00,
2013-11-29 17:09:00,30.7,20.3,30.63,East,99,0.0,0.0,65,0.00,,,0.00,0.0,meteobridge,2013-11-29 22:09:00,
2013-11-29 17:14:00,30.6,20.5,30.63,East,99,0.0,0.0,66,0.00,,,0.00,0.0,meteobridge,2013-11-29 22:14:00,
2013-11-29 17:20:00,30.2,20.3,30.64,East,99,0.0,0.0,66,0.00,,,0.00,0.0,meteobridge,2013-11-29 22:20:00,
2013-11-29 17:25:00,29.8,20.7,30.64,East,99,0.0,0.0,68,0.00,,,0.00,0.0,meteobridge,2013-11-29 22:25:00,
2013-11-29 17:30:00,29.5,20.3,30.64,East,99,0.0,0.0,68,0.00,,,0.00,0.0,meteobridge,2013-11-29 22:30:00,
2013-11-29 17:35:00,29.1,20.8,30.64,East,99,2.0,2.0,71,0.00,,,0.00,0.0,meteobridge,2013-11-29 22:35:00,
2013-11-29 17:40:00,28.8,20.5,30.64,East,99,0.9,2.9,71,0.00,,,0.00,0.0,meteobridge,2013-11-29 22:40:00,
2013-11-29 17:45:00,28.8,20.5,30.64,East,99,0.9,2.0,71,0.00,,,0.00,0.0,meteobridge,2013-11-29 22:45:00,
2013-11-29 17:50:00,28.8,20.8,30.63,SSE,153,2.0,4.0,72,0.00,,,0.00,0.0,meteobridge,2013-11-29 22:50:00,
2013-11-29 17:55:00,28.8,20.8,30.63,SE,124,2.0,4.9,72,0.00,,,0.00,0.0,meteobridge,2013-11-29 22:55:00,
2013-11-29 18:00:00,28.9,20.7,30.63,SSE,158,2.9,4.0,71,0.00,,,0.00,0.0,meteobridge,2013-11-29 23:00:00,
2013-11-29 18:05:00,29.1,21.2,30.63,SSE,158,2.0,6.0,72,0.00,,,0.00,0.0,meteobridge,2013-11-29 23:05:00,
2013-11-29 18:10:00,29.3,21.0,30.64,SE,131,2.9,6.0,71,0.00,,,0.00,0.0,meteobridge,2013-11-29 23:10:00,
2013-11-29 18:15:00,29.5,21.2,30.64,SSE,148,2.0,2.9,71,0.00,,,0.00,0.0,meteobridge,2013-11-29 23:15:00,
2013-11-29 18:20:00,29.5,21.2,30.64,SSE,148,0.9,2.9,71,0.00,,,0.00,0.0,meteobridge,2013-11-29 23:20:00,
2013-11-29 18:25:00,29.3,21.0,30.64,SSE,160,2.9,2.9,71,0.00,,,0.00,0.0,meteobridge,2013-11-29 23:25:00,
2013-11-29 18:31:00,29.1,21.2,30.63,SE,139,0.9,4.0,72,0.00,,,0.00,0.0,meteobridge,2013-11-29 23:31:00,
2013-11-29 18:36:00,28.9,21.4,30.63,SE,145,0.9,4.9,73,0.00,,,0.00,0.0,meteobridge,2013-11-29 23:36:00,
2013-11-29 18:41:00,28.9,21.4,30.63,SSE,147,0.0,0.9,73,0.00,,,0.00,0.0,meteobridge,2013-11-29 23:41:00,
2013-11-29 18:46:00,28.8,21.2,30.63,SE,143,2.0,2.9,73,0.00,,,0.00,0.0,meteobridge,2013-11-29 23:46:00,
2013-11-29 18:51:00,28.8,21.6,30.63,ESE,110,2.9,2.9,74,0.00,,,0.00,0.0,meteobridge,2013-11-29 23:51:00,
2013-11-29 18:56:00,28.6,21.7,30.64,SE,146,2.9,4.0,75,0.00,,,0.00,0.0,meteobridge,2013-11-29 23:56:00,
2013-11-29 19:01:00,28.4,21.6,30.63,SSE,148,2.0,2.9,75,0.00,,,0.00,0.0,meteobridge,2013-11-30 00:01:00,
2013-11-29 19:06:00,28.4,21.6,30.63,South,175,0.0,2.9,75,0.00,,,0.00,0.0,meteobridge,2013-11-30 00:06:00,
2013-11-29 19:11:00,28.2,21.4,30.63,South,175,2.0,2.9,75,0.00,,,0.00,0.0,meteobridge,2013-11-30 00:11:00,
2013-11-29 19:16:00,28.2,21.6,30.63,South,175,0.0,0.9,76,0.00,,,0.00,0.0,meteobridge,2013-11-30 00:16:00,
2013-11-29 19:21:00,28.0,21.4,30.63,ESE,120,0.0,0.0,76,0.00,,,0.00,0.0,meteobridge,2013-11-30 00:21:00,
2013-11-29 19:26:00,27.9,21.6,30.63,SE,129,0.0,4.0,77,0.00,,,0.00,0.0,meteobridge,2013-11-30 00:26:00,
2013-11-29 19:31:00,27.9,21.6,30.63,SE,130,0.9,2.0,77,0.00,,,0.00,0.0,meteobridge,2013-11-30 00:31:00,
2013-11-29 19:36:00,27.9,21.6,30.63,SE,129,0.0,0.0,77,0.00,,,0.00,0.0,meteobridge,2013-11-30 00:36:00,
2013-11-29 19:41:00,27.9,21.6,30.63,SE,129,0.0,0.0,77,0.00,,,0.00,0.0,meteobridge,2013-11-30 00:41:00,
2013-11-29 19:46:00,27.7,21.4,30.63,SE,129,0.0,0.0,77,0.00,,,0.00,0.0,meteobridge,2013-11-30 00:46:00,
2013-11-29 19:51:00,27.3,21.0,30.63,SE,129,0.0,0.9,77,0.00,,,0.00,0.0,meteobridge,2013-11-30 00:51:00,
2013-11-29 19:57:00,27.1,21.2,30.63,SE,129,0.0,0.9,78,0.00,,,0.00,0.0,meteobridge,2013-11-30 00:57:00,
2013-11-29 20:02:00,27.0,21.0,30.63,SE,129,0.0,0.0,78,0.00,,,0.00,0.0,meteobridge,2013-11-30 01:02:00,
2013-11-29 20:07:00,26.8,20.8,30.63,SE,130,0.0,0.0,78,0.00,,,0.00,0.0,meteobridge,2013-11-30 01:07:00,
2013-11-29 20:12:00,26.6,21.0,30.62,SE,129,0.0,0.0,79,0.00,,,0.00,0.0,meteobridge,2013-11-30 01:12:00,
2013-11-29 20:17:00,26.2,20.7,30.62,SE,129,0.0,0.0,79,0.00,,,0.00,0.0,meteobridge,2013-11-30 01:17:00,
2013-11-29 20:22:00,26.1,20.7,30.62,SE,129,0.0,0.0,80,0.00,,,0.00,0.0,meteobridge,2013-11-30 01:22:00,
2013-11-29 20:28:00,25.9,20.5,30.62,SE,129,0.0,0.0,80,0.00,,,0.00,0.0,meteobridge,2013-11-30 01:28:00,
2013-11-29 20:33:00,25.5,20.5,30.62,SE,129,0.0,0.0,81,0.00,,,0.00,0.0,meteobridge,2013-11-30 01:33:00,
2013-11-29 20:38:00,25.3,20.3,30.62,SE,130,0.0,0.0,81,0.00,,,0.00,0.0,meteobridge,2013-11-30 01:38:00,
2013-11-29 20:43:00,25.2,20.5,30.62,SE,129,0.0,0.0,82,0.00,,,0.00,0.0,meteobridge,2013-11-30 01:43:00,
2013-11-29 20:48:00,25.0,20.3,30.61,SE,130,0.0,0.0,82,0.00,,,0.00,0.0,meteobridge,2013-11-30 01:48:00,
2013-11-29 20:53:00,24.6,19.9,30.61,SE,129,0.0,0.0,82,0.00,,,0.00,0.0,meteobridge,2013-11-30 01:53:00,
2013-11-29 20:58:00,24.4,19.9,30.61,SE,129,0.0,0.0,83,0.00,,,0.00,0.0,meteobridge,2013-11-30 01:58:00,
2013-11-29 21:03:00,24.3,20.1,30.61,SE,130,0.0,0.0,84,0.00,,,0.00,0.0,meteobridge,2013-11-30 02:03:00,
2013-11-29 21:09:00,24.1,19.9,30.61,SE,129,0.0,0.0,84,0.00,,,0.00,0.0,meteobridge,2013-11-30 02:09:00,
2013-11-29 21:14:00,23.9,20.1,30.60,SE,129,0.0,0.0,85,0.00,,,0.00,0.0,meteobridge,2013-11-30 02:14:00,
2013-11-29 21:19:00,23.7,19.9,30.60,SE,129,0.0,0.0,85,0.00,,,0.00,0.0,meteobridge,2013-11-30 02:19:00,
2013-11-29 21:24:00,23.5,19.8,30.60,SE,129,0.0,0.0,85,0.00,,,0.00,0.0,meteobridge,2013-11-30 02:24:00,
2013-11-29 21:29:00,23.5,19.9,30.60,SE,129,0.0,0.0,86,0.00,,,0.00,0.0,meteobridge,2013-11-30 02:29:00,
2013-11-29 21:34:00,23.4,19.8,30.60,SE,130,0.0,0.0,86,0.00,,,0.00,0.0,meteobridge,2013-11-30 02:34:00,
2013-11-29 21:39:00,23.4,20.1,30.60,SE,129,0.0,0.0,87,0.00,,,0.00,0.0,meteobridge,2013-11-30 02:39:00,
2013-11-29 21:44:00,23.4,20.1,30.60,SE,130,0.0,0.0,87,0.00,,,0.00,0.0,meteobridge,2013-11-30 02:44:00,
2013-11-29 21:49:00,23.2,19.9,30.60,SE,129,0.0,0.0,87,0.00,,,0.00,0.0,meteobridge,2013-11-30 02:49:00,
2013-11-29 21:54:00,23.2,19.9,30.60,SE,130,0.0,0.0,87,0.00,,,0.00,0.0,meteobridge,2013-11-30 02:54:00,
2013-11-29 21:59:00,23.0,19.8,30.60,SE,129,0.0,0.0,87,0.00,,,0.00,0.0,meteobridge,2013-11-30 02:59:00,
2013-11-29 22:05:00,22.8,19.8,30.59,SE,129,0.0,0.0,88,0.00,,,0.00,0.0,meteobridge,2013-11-30 03:05:00,
2013-11-29 22:10:00,22.8,19.8,30.59,SE,130,0.0,0.0,88,0.00,,,0.00,0.0,meteobridge,2013-11-30 03:10:00,
2013-11-29 22:15:00,22.6,19.6,30.59,SE,129,0.0,0.0,88,0.00,,,0.00,0.0,meteobridge,2013-11-30 03:15:00,
2013-11-29 22:20:00,22.6,19.6,30.59,SE,130,0.0,0.0,88,0.00,,,0.00,0.0,meteobridge,2013-11-30 03:20:00,
2013-11-29 22:25:00,22.5,19.4,30.59,SE,129,0.0,0.0,88,0.00,,,0.00,0.0,meteobridge,2013-11-30 03:25:00,
2013-11-29 22:30:00,22.5,19.8,30.59,SE,130,0.0,0.0,89,0.00,,,0.00,0.0,meteobridge,2013-11-30 03:30:00,
2013-11-29 22:36:00,22.3,19.6,30.59,SE,129,0.0,0.0,89,0.00,,,0.00,0.0,meteobridge,2013-11-30 03:36:00,
2013-11-29 22:40:00,22.3,19.6,30.59,SE,129,0.0,0.0,89,0.00,,,0.00,0.0,meteobridge,2013-11-30 03:40:00,
2013-11-29 22:46:00,22.1,19.6,30.59,SE,129,0.0,0.0,90,0.00,,,0.00,0.0,meteobridge,2013-11-30 03:46:00,
2013-11-29 22:51:00,22.1,19.6,30.58,SE,129,0.0,0.0,90,0.00,,,0.00,0.0,meteobridge,2013-11-30 03:51:00,
2013-11-29 22:56:00,21.9,19.4,30.59,SE,129,0.0,0.0,90,0.00,,,0.00,0.0,meteobridge,2013-11-30 03:56:00,
2013-11-29 23:01:00,22.1,19.9,30.59,SE,129,0.0,0.0,91,0.00,,,0.00,0.0,meteobridge,2013-11-30 04:01:00,
2013-11-29 23:06:00,22.3,20.1,30.59,SE,130,0.0,0.0,91,0.00,,,0.00,0.0,meteobridge,2013-11-30 04:06:00,
2013-11-29 23:12:00,22.3,20.1,30.58,SE,129,0.0,0.0,91,0.00,,,0.00,0.0,meteobridge,2013-11-30 04:12:00,
2013-11-29 23:17:00,22.3,20.1,30.58,SE,129,0.0,0.0,91,0.00,,,0.00,0.0,meteobridge,2013-11-30 04:17:00,
2013-11-29 23:21:00,22.5,20.3,30.59,SE,129,0.0,0.0,91,0.00,,,0.00,0.0,meteobridge,2013-11-30 04:21:00,
2013-11-29 23:27:00,22.5,20.3,30.58,SE,129,0.0,0.0,91,0.00,,,0.00,0.0,meteobridge,2013-11-30 04:27:00,
2013-11-29 23:32:00,22.5,20.3,30.58,SE,129,0.0,0.0,91,0.00,,,0.00,0.0,meteobridge,2013-11-30 04:32:00,
2013-11-29 23:37:00,22.5,20.3,30.58,SE,129,0.0,0.0,91,0.00,,,0.00,0.0,meteobridge,2013-11-30 04:37:00,
2013-11-29 23:42:00,22.5,20.3,30.58,SE,129,0.0,0.0,91,0.00,,,0.00,0.0,meteobridge,2013-11-30 04:42:00,
2013-11-29 23:47:00,22.6,20.5,30.57,SE,129,0.0,0.0,91,0.00,,,0.00,0.0,meteobridge,2013-11-30 04:47:00,
2013-11-29 23:53:00,22.6,20.5,30.57,SE,129,0.0,0.0,91,0.00,,,0.00,0.0,meteobridge,2013-11-30 04:53:00,
2013-11-29 23:58:00,22.6,20.5,30.57,SE,129,0.0,0.0,91,0.00,,,0.00,0.0,meteobridge,2013-11-30 04:58:00,